[[{"header":{"parameterUnit":"m.s-1","parameterCategory":1,"la1":30.2991,"la2":30.254,"lo1":-89.0895,"lo2":-89.0444,"dy":0.0017,"dx":0.0017,"nx":28,"ny":28,"refTime":"2026-01-04T09:00:00:Z","depth":0,"parameterNumber":2,"parameterNumberName":"U-component_of_WINDS"},"data":[0,0,0,0,0,0,0,0,0,0,0,0,0,0,0,0,0,0,0,0,0,0,0,0,0,0,0,0,0,0,0,0,0,0,0,0,0,0,0,0,0,0,0,0,0,0,0,0,0,0,0,0,0,0,0,0,0,0,-1.8936,-1.8937,0,-1.9004,-1.9005,-1.9006,-1.8973,-1.8971,-1.8969,-1.8967,-1.9038,-1.9042,-1.9045,0,0,0,0,0,0,0,0,0,0,0,0,0,-1.8779,-1.8782,-1.8936,-1.8937,-1.8938,-1.9004,-1.9005,-1.9006,-1.8973,-1.8971,-1.8969,-1.8967,-1.9037,-1.9041,-1.9046,0,0,0,0,0,0,0,0,0,0,0,0,0,-1.8847,-1.8783,-1.8936,-1.8929,-1.8929,-1.9004,-1.9005,-1.9006,-1.8973,-1.8971,-1.8968,-1.8965,-1.9036,-1.9041,-1.9046,-1.9132,0,0,-1.9062,-1.9065,0,0,0,0,0,0,0,0,-1.8843,-1.8853,-1.8929,-1.893,-1.893,-1.8977,-1.8976,-1.9049,-1.8974,-1.8957,-1.8967,-1.8964,-1.902,-1.9027,-1.9045,-1.9135,-1.9138,-1.9063,-1.9066,-1.9068,-1.907,0,0,0,0,0,0,0,-1.8838,-1.885,-1.8963,-1.893,-1.8931,-1.8923,-1.893,-1.8989,-1.9002,-1.8958,-1.8956,-1.8964,-1.902,-1.904,-1.9047,-1.9139,-1.9063,-1.9067,-1.9071,-1.9073,-1.9306,-1.9309,0,0,0,0,0,0,-1.8834,-1.8846,-1.8961,-1.8965,-1.8879,-1.8928,-1.8936,-1.8965,-1.9002,-1.9005,-1.8966,-1.8962,-1.9032,-1.9041,-1.9049,-1.9154,-1.9068,-1.9073,-1.9076,-1.9303,-1.9306,-1.931,0,0,0,0,0,0,-1.8831,-1.8844,-1.8958,-1.8905,-1.8919,-1.8934,-1.8967,-1.8968,-1.8988,-1.9008,-1.901,-1.8985,-1.9031,-1.9042,-1.9112,-1.9156,-1.9076,-1.908,-1.9299,-1.9304,-1.9308,-1.9363,0,0,0,0,0,0,-1.8826,-1.8843,-1.8876,-1.8906,-1.8922,-1.902,-1.8969,-1.8971,-1.8997,-1.8992,-1.9026,-1.9029,-1.9029,-1.9104,-1.9117,-1.9162,-1.9085,-1.9295,-1.9301,-1.9307,-1.9358,-1.9369,-1.9379,0,0,0,0,0,-1.8821,-1.8888,-1.8877,-1.8891,-1.8962,-1.9022,-1.9031,-1.903,-1.9001,-1.9034,-1.9047,-1.9028,-1.9149,-1.9112,-1.9126,-1.9173,-1.9293,-1.93,-1.9306,-1.9353,-1.9367,-1.9378,0,0,0,0,0,0,-1.8862,-1.8892,-1.888,-1.8959,-1.8989,-1.9016,-1.9058,-1.9045,-1.9083,-1.9077,-1.9075,-1.9083,-1.9156,-1.9171,-1.913,-1.9259,-1.9216,-1.9226,-1.9247,-1.926,-1.9271,-1.9266,-1.9089,0,0,0,0,0,-1.8881,-1.8926,-1.895,-1.9017,-1.9033,-1.9043,-1.9069,-1.9066,-1.9096,-1.9108,-1.9126,-1.9157,-1.9202,-1.9231,-1.9274,-1.9359,-1.9367,-1.9398,-1.9409,-1.9418,-1.9427,-1.9475,-1.949,-1.9332,-1.9332,-1.9332,0,0,-1.8919,-1.8941,-1.897,-1.9026,-1.9049,-1.9097,-1.9054,-1.9106,-1.9142,-1.9116,-1.9184,-1.9199,-1.9233,-1.9312,-1.9347,-1.9327,-1.9472,-1.9426,-1.9433,-1.9437,-1.9483,-1.9498,-1.9512,-1.9336,-1.9336,-1.9335,0,0,-1.9015,-1.9035,-1.9094,-1.9118,-1.9152,-1.9159,-1.9173,-1.9203,-1.9212,-1.9281,-1.9263,-1.9306,-1.9383,-1.9408,-1.9431,-1.9538,-1.9523,-1.9552,-1.9608,-1.9655,-1.9667,-1.9679,-1.9719,-1.9733,-1.956,-1.9561,-1.9561,0,-1.9058,-1.913,-1.9127,-1.9181,-1.9208,-1.9186,-1.9248,-1.927,-1.9317,-1.9336,-1.9312,-1.9409,-1.943,-1.9516,-1.9542,-1.9561,-1.9578,-1.9549,-1.9666,-1.9677,-1.9687,-1.9725,-1.974,-1.9564,-1.9564,-1.9563,-1.9563,0,-1.9183,-1.9233,-1.9277,-1.9323,-1.9354,-1.9412,-1.9418,-1.945,-1.9445,-1.9454,-1.9525,-1.955,-1.9598,-1.9617,-1.9612,-1.9703,-1.9689,-1.9666,-1.9623,-1.9706,-1.9742,-1.9756,-1.9569,-1.9568,-1.9567,-1.9566,0,0,-1.9306,-1.9351,-1.9367,-1.9389,-1.9426,-1.9465,-1.9522,-1.9569,-1.9597,-1.963,-1.9679,-1.9745,-1.9724,-1.9751,-1.9748,-1.9789,-1.9875,-1.9761,-1.9762,-1.9783,-1.9979,-1.9998,-2.0014,-1.9864,-1.9867,-1.9869,-1.9976,0,-1.9406,-1.9506,-1.9506,-1.9599,-1.9646,-1.9627,-1.9677,-1.9706,-1.9716,-1.9759,-1.977,-1.9818,-1.9786,-1.9802,-1.9841,-1.9856,-1.9914,-1.9848,-1.9911,-1.9913,-1.9905,-2.0033,-2.0052,-2.0153,-1.999,-1.9993,-1.9994,0,-1.9535,-1.9573,-1.9671,-1.9703,-1.9723,-1.9768,-1.9812,-1.9852,-1.9884,-1.9889,-1.992,-1.9911,-1.997,-1.9925,-2.0008,-1.9963,-1.9989,-2.0,-2.0004,-2.0011,-1.996,-2.0045,-2.0184,-2.02,-2.0016,-2.0014,-2.0013,0,-1.9618,-1.9693,-1.9762,-1.9781,-1.9819,-1.9852,-1.9869,-1.9899,-1.9928,-1.9966,-1.9985,-2.003,-2.0055,-2.009,-2.0095,-2.0061,-2.0179,-2.0133,-2.0186,-2.0186,-2.0213,-2.0211,-2.036,-2.0227,-2.0226,-2.0226,-2.0226,0,-1.973,-1.9791,-1.98,-1.9843,-1.9911,-1.991,-1.9978,-1.9993,-2.002,-2.0066,-2.0052,-2.0095,-2.0098,-2.0142,-2.0146,-2.0215,-2.0226,-2.0233,-2.0233,-2.0235,-2.0235,-2.0253,-2.0247,-2.023,-2.0229,-2.0228,-2.0228,0,-1.9834,-1.9843,-1.9917,-1.9947,-1.9957,-2.0006,-2.0032,-2.0074,-2.0083,-2.0141,-2.0155,-2.017,-2.0222,-2.023,-2.0291,-2.0293,-2.0377,-2.0369,-2.0366,-2.0366,-2.0419,-2.0414,-2.0586,-2.0609,-2.0459,-2.046,-2.0462,0,-1.9906,-1.9953,-1.9989,-2.0019,-2.0038,-2.0086,-2.0116,-2.0117,-2.0149,-2.019,-2.0227,-2.0278,-2.0318,-2.0403,-2.042,-2.0467,-2.0461,-2.0518,-2.0468,-2.0469,-2.0464,-2.0462,-2.0468,-2.0528,-2.053,-2.0531,-2.0532,0,-2.0033,-2.0035,-2.0078,-2.0124,-2.016,-2.0196,-2.023,-2.0255,-2.0261,-2.0297,-2.0351,-2.0382,-2.0445,-2.0496,-2.0543,-2.0562,-2.0549,-2.0548,-2.0563,-2.0566,-2.0563,-2.0567,-2.0394,-2.0544,-2.0543,-2.0542,-2.0541,-2.0541,-2.0125,-2.0166,-2.0198,-2.0248,-2.0273,-2.0306,-2.0346,-2.0361,-2.0406,-2.0457,-2.0455,-2.0515,-2.0548,-2.0609,-2.0631,-2.0678,-2.066,-2.0681,-2.0687,-2.0692,-2.0698,-2.0554,-2.0686,-2.0686,-2.0686,-2.0685,-2.0685,0,-2.0253,-2.0273,-2.0318,-2.0366,-2.0405,-2.0389,-2.0426,-2.046,-2.0513,-2.0544,-2.0585,-2.0647,-2.0697,-2.0718,-2.0768,-2.0801,-2.0797,-2.0815,-2.0813,-2.0818,-2.0711,-2.0694,-2.0818,-2.0818,-2.0817,-2.0817,-2.0817,-2.0817,-2.0324,-2.0394,-2.04,-2.0484,-2.0503,-2.0561,-2.0584,-2.0614,-2.064,-2.071,-2.0752,-2.0765,-2.0793,-2.0845,-2.089,-2.0895,-2.0915,-2.0936,-2.0938,-2.0838,-2.0825,-2.0812,-2.0796,-2.0939,-2.0939,-2.1041,-2.1042,-2.1043]},{"header":{"parameterUnit":"m.s-1","parameterCategory":1,"la1":30.2991,"la2":30.254,"lo1":-89.0895,"lo2":-89.0444,"dy":0.0017,"dx":0.0017,"nx":28,"ny":28,"refTime":"2026-01-04T09:00:00:Z","depth":0,"parameterNumber":3,"parameterNumberName":"V-component_of_WINDS"},"data":[0,0,0,0,0,0,0,0,0,0,0,0,0,0,0,0,0,0,0,0,0,0,0,0,0,0,0,0,0,0,0,0,0,0,0,0,0,0,0,0,0,0,0,0,0,0,0,0,0,0,0,0,0,0,0,0,0,0,-6.3385,-6.3386,0,-6.3399,-6.3399,-6.3399,-6.3325,-6.3323,-6.3321,-6.3319,-6.333,-6.3333,-6.3335,0,0,0,0,0,0,0,0,0,0,0,0,0,-6.3294,-6.3296,-6.3385,-6.3386,-6.3386,-6.3399,-6.3399,-6.3399,-6.3325,-6.3323,-6.332,-6.3318,-6.333,-6.3332,-6.3335,0,0,0,0,0,0,0,0,0,0,0,0,0,-6.3323,-6.3297,-6.3385,-6.335,-6.3348,-6.3399,-6.3399,-6.3399,-6.3326,-6.3323,-6.3319,-6.3316,-6.3329,-6.3332,-6.3335,-6.342,0,0,-6.3346,-6.3347,0,0,0,0,0,0,0,0,-6.3321,-6.3326,-6.3355,-6.3353,-6.335,-6.3357,-6.3371,-6.3406,-6.3327,-6.3334,-6.3319,-6.3315,-6.3342,-6.3344,-6.3353,-6.3421,-6.3421,-6.3346,-6.3348,-6.335,-6.3351,0,0,0,0,0,0,0,-6.332,-6.3325,-6.3391,-6.3356,-6.3352,-6.3333,-6.3334,-6.3377,-6.3355,-6.3333,-6.3328,-6.333,-6.3339,-6.335,-6.3353,-6.3421,-6.3346,-6.3349,-6.3351,-6.3353,-6.3559,-6.3562,0,0,0,0,0,0,-6.3322,-6.3324,-6.339,-6.3391,-6.3328,-6.3338,-6.3338,-6.3358,-6.3355,-6.3351,-6.3333,-6.3327,-6.3346,-6.3349,-6.3353,-6.3452,-6.335,-6.3353,-6.3355,-6.3556,-6.356,-6.3564,0,0,0,0,0,0,-6.3321,-6.3329,-6.339,-6.3356,-6.3362,-6.3343,-6.3365,-6.336,-6.337,-6.3355,-6.335,-6.3348,-6.3343,-6.3348,-6.3404,-6.3452,-6.3355,-6.3358,-6.3552,-6.3557,-6.3562,-6.3651,0,0,0,0,0,0,-6.3318,-6.3329,-6.3361,-6.3358,-6.3365,-6.3441,-6.3368,-6.3362,-6.3377,-6.3369,-6.3368,-6.3365,-6.3341,-6.34,-6.3408,-6.3454,-6.336,-6.3547,-6.3554,-6.356,-6.3644,-6.3659,-6.3671,0,0,0,0,0,-6.3315,-6.3385,-6.3363,-6.3372,-6.3405,-6.3444,-6.3448,-6.3421,-6.3381,-6.3413,-6.3403,-6.3365,-6.3445,-6.3406,-6.3414,-6.3463,-6.3544,-6.3552,-6.356,-6.3638,-6.3656,-6.3671,0,0,0,0,0,0,-6.3394,-6.3384,-6.336,-6.3431,-6.3439,-6.3432,-6.3471,-6.3441,-6.346,-6.3451,-6.3416,-6.3416,-6.3478,-6.3476,-6.3433,-6.3545,-6.3488,-6.3498,-6.3544,-6.3561,-6.3575,-6.3574,-6.3363,0,0,0,0,0,-6.342,-6.3454,-6.3443,-6.3506,-6.3512,-6.3491,-6.3507,-6.3486,-6.3492,-6.3495,-6.3489,-6.3497,-6.3524,-6.3542,-6.3566,-6.3643,-6.3642,-6.3681,-6.3695,-6.3706,-6.3715,-6.3756,-6.3773,-6.3589,-6.3589,-6.3589,0,0,-6.3474,-6.3472,-6.3495,-6.3522,-6.3526,-6.3561,-6.3495,-6.3534,-6.356,-6.3501,-6.3554,-6.355,-6.3556,-6.3623,-6.3652,-6.3623,-6.3765,-6.3716,-6.3725,-6.3728,-6.3765,-6.3783,-6.3798,-6.3594,-6.3593,-6.3592,0,0,-6.3589,-6.3591,-6.3645,-6.365,-6.3657,-6.3643,-6.3656,-6.3654,-6.3649,-6.3702,-6.3658,-6.3688,-6.3735,-6.3741,-6.3751,-6.3869,-6.3834,-6.3878,-6.395,-6.399,-6.4004,-6.4017,-6.4059,-6.4075,-6.3887,-6.3887,-6.3887,0,-6.3654,-6.3706,-6.3676,-6.3719,-6.3732,-6.3681,-6.3735,-6.3741,-6.3756,-6.3766,-6.3733,-6.3792,-6.3792,-6.386,-6.3889,-6.3898,-6.3912,-6.3877,-6.4005,-6.4017,-6.4028,-6.4068,-6.4084,-6.3892,-6.3891,-6.3891,-6.389,0,-6.3785,-6.3822,-6.3864,-6.3881,-6.3898,-6.3946,-6.3923,-6.3945,-6.3922,-6.3911,-6.3965,-6.3964,-6.3987,-6.4001,-6.3979,-6.4066,-6.4048,-6.4011,-6.3952,-6.4052,-6.4088,-6.4103,-6.39,-6.3898,-6.3896,-6.3895,0,0,-6.395,-6.395,-6.3966,-6.3973,-6.3977,-6.4004,-6.405,-6.4073,-6.4093,-6.4104,-6.4141,-6.4183,-6.4149,-6.4159,-6.4137,-6.4172,-6.4266,-6.413,-6.413,-6.4156,-6.4363,-6.4391,-6.4409,-6.4243,-6.4246,-6.4248,-6.4362,0,-6.4063,-6.4142,-6.4117,-6.4196,-6.4229,-6.4182,-6.4222,-6.4229,-6.422,-6.4246,-6.4236,-6.4266,-6.4219,-6.4225,-6.4258,-6.4248,-6.4307,-6.4239,-6.4277,-6.4279,-6.4277,-6.4428,-6.4458,-6.4565,-6.4376,-6.4379,-6.438,0,-6.4205,-6.4224,-6.4307,-6.4306,-6.4319,-6.4355,-6.4375,-6.4401,-6.4407,-6.4398,-6.4411,-6.4381,-6.4425,-6.4368,-6.4428,-6.4382,-6.4396,-6.4394,-6.4398,-6.44,-6.4336,-6.4434,-6.4598,-6.4615,-6.4403,-6.4401,-6.4399,0,-6.4317,-6.4363,-6.4418,-6.4426,-6.4426,-6.4453,-6.4454,-6.4457,-6.4473,-6.449,-6.45,-6.4521,-6.4533,-6.455,-6.4527,-6.4487,-6.4591,-6.4531,-6.4584,-6.4585,-6.4608,-6.4607,-6.4777,-6.4618,-6.4617,-6.4617,-6.4617,0,-6.4446,-6.4499,-6.4469,-6.4503,-6.4561,-6.4531,-6.4589,-6.4584,-6.4588,-6.462,-6.458,-6.4611,-6.4579,-6.4607,-6.4589,-6.4641,-6.4647,-6.4641,-6.4635,-6.4644,-6.4645,-6.4653,-6.4645,-6.4621,-6.462,-6.462,-6.4619,0,-6.4581,-6.4563,-6.4621,-6.4616,-6.4617,-6.4659,-6.4655,-6.4687,-6.4675,-6.4716,-6.4724,-6.4706,-6.4737,-6.4716,-6.4746,-6.4734,-6.4804,-6.4788,-6.4802,-6.4797,-6.4852,-6.4847,-6.5033,-6.5055,-6.4882,-6.4884,-6.4885,0,-6.4664,-6.4704,-6.4704,-6.4723,-6.4727,-6.4759,-6.4775,-6.4747,-6.4765,-6.4776,-6.4806,-6.4833,-6.4854,-6.4905,-6.4894,-6.4917,-6.4902,-6.4965,-6.4905,-6.4913,-6.4903,-6.4901,-6.4904,-6.4977,-6.4979,-6.4981,-6.4982,0,-6.4814,-6.4803,-6.4828,-6.4851,-6.4871,-6.4887,-6.49,-6.4918,-6.489,-6.4912,-6.4944,-6.496,-6.4991,-6.5019,-6.5038,-6.5038,-6.5006,-6.5002,-6.5015,-6.5025,-6.5031,-6.5028,-6.4835,-6.4997,-6.4996,-6.4995,-6.4994,-6.4993,-6.4925,-6.4958,-6.4964,-6.4993,-6.5,-6.5013,-6.5043,-6.5035,-6.5061,-6.5085,-6.5067,-6.5104,-6.511,-6.5132,-6.5137,-6.5165,-6.5139,-6.5159,-6.5164,-6.5169,-6.5177,-6.5027,-6.5169,-6.5168,-6.5168,-6.5167,-6.5167,0,-6.5073,-6.5074,-6.5102,-6.5121,-6.5144,-6.5113,-6.5125,-6.5146,-6.518,-6.5188,-6.5209,-6.5246,-6.5272,-6.5264,-6.5288,-6.5312,-6.5298,-6.5319,-6.5317,-6.5318,-6.5199,-6.5185,-6.5331,-6.5331,-6.5331,-6.5331,-6.5331,-6.5331,-6.5152,-6.5207,-6.5197,-6.5254,-6.5255,-6.5292,-6.5302,-6.5314,-6.532,-6.5362,-6.5385,-6.5379,-6.5381,-6.5405,-6.5428,-6.5424,-6.5435,-6.5462,-6.5454,-6.5342,-6.5326,-6.5311,-6.5297,-6.5465,-6.5465,-6.557,-6.5571,-6.5572]}]]